Home > Weather > South Bend > Past weeks

Flag for USA Past Weather in South Bend, Indiana, USA — Yesterday and Last 2 Weeks

Now
80 °F

Sunny.


Feels Like: 81 °F
Forecast: 62 / 85 °F
Wind: 6 mph from North

Location: Michiana Regional Airport

Current Time: Jul 25, 2016 at 8:54:38 PM

Latest Report: Jul 25, 2016 at 7:54 PM


Visibility: 10 mi

Pressure: 29.98 "Hg

Humidity: 52%

Dew Point: 61 °F

Location of South BendLocation

Past Weather in South Bend — Graph

°F

South Bend Temperature Yesterday

Maximum temperature yesterday: 89 °F (at 2:54 PM)
Minimum temperature yesterday: 70 °F (at 2:54 AM)
Average temperature yesterday: 79 °F

High & Low Weather Summary for the Past Weeks

 TemperatureHumidityPressure
High91 °F (Jul 23, 3:54 PM)100% (Jul 13, 3:54 AM)30.25 "Hg (Jul 13, 3:54 AM)
Low54 °F (Jul 17, 2:54 AM)39% (Jul 19, 3:54 PM)29.77 "Hg (Jul 13, 11:54 PM)
Average75 °F75%30.01 "Hg
* Reported Jul 10 6:54 PM — Jul 25 6:54 PM, South Bend, Weather by CustomWeather, © 2016

Note: Actual official high and low records may vary slightly from our data, if they occured in-between our weather recording intervals... More about our weather records

Advertising

South Bend Weather History for the Previous 24 Hours

Scroll right to see more
 ConditionsComfort  
Time TempWeatherWind HumidityBarometerVisibility
6:54 PM
Mon, Jul 25
81 °FSunny.8 mph51%29.99 "Hg10 mi
5:54 PM81 °FSunny.12 mph54%29.98 "Hg10 mi
4:54 PM82 °FSunny.9 mph56%29.98 "Hg10 mi
3:54 PM83 °FSunny.10 mph55%29.98 "Hg10 mi
2:54 PM82 °FSunny.12 mph60%30.00 "Hg10 mi
1:54 PM83 °FSunny.8 mph59%30.00 "Hg10 mi
12:54 PM82 °FSunny.8 mph60%29.99 "Hg10 mi
11:54 AM81 °FSunny.8 mph65%29.99 "Hg10 mi
10:54 AM79 °FSunny.6 mph69%29.98 "Hg10 mi
9:54 AM78 °FSunny.10 mph74%29.97 "Hg10 mi
8:54 AM75 °FSunny.7 mph82%29.95 "Hg10 mi
7:54 AM72 °FSunny.5 mph84%29.95 "Hg10 mi
6:54 AM71 °FOvercast.5 mph87%29.95 "Hg10 mi
5:54 AM71 °FOvercast.10 mph90%29.94 "Hg10 mi
4:54 AM70 °FPassing clouds.9 mph90%29.93 "Hg10 mi
3:54 AM69 °FClear.7 mph96%29.92 "Hg10 mi
2:54 AM69 °FPassing clouds.13 mph96%29.92 "Hg10 mi
1:54 AM70 °FRain. Passing clouds.16 mph93%29.94 "Hg7 mi
1:03 AM70 °FThunderstorms. Clear.16 mph90%29.96 "Hg10 mi
11:54 PM
Sun, Jul 24
73 °FThundershowers. Passing clouds.6 mph81%29.90 "Hg10 mi
10:54 PM75 °FClear.5 mph71%29.90 "Hg10 mi
9:54 PM83 °FPassing clouds.10 mph82%29.87 "Hg10 mi
8:54 PM84 °FSunny.8 mph80%29.87 "Hg10 mi
Weather by CustomWeather, © 2016

See weather overviewHow to use our weather pages